SAVIL Weather Reports


time (UTC)temp
C
wind
direction
speed
KPH
gust
KPH
rain 1hr
cm
rain 24hr
cm
rain mn
cm
humidity
%
barometer
mb
20260503194705 5 326 1.6 4.8 0.00 0.00 0.00 60 1006.9
20260503192705 5 0.0 1.6 0.00 0.00 0.00 55 1006.8
20260503190705 6 310 3.2 4.8 0.00 0.00 0.00 54 1006.7
20260503184705 7 292 4.8 6.4 0.00 0.00 0.00 52 1006.5
20260503182705 8 298 6.4 9.7 0.00 0.00 0.00 41 1006.4
20260503180705 10 279 8.0 12.9 0.00 0.00 0.00 35 1006.2
20260503174705 10 284 8.0 16.1 0.00 0.00 0.00 34 1006.1
20260503172710 10 284 9.7 17.7 0.00 0.00 0.00 31 1005.9
20260503170705 11 295 8.0 14.5 0.00 0.00 0.00 32 1005.8
20260503150704 12 303 11.3 20.9 0.00 0.00 0.00 30 1005.6
20260503130704 12 319 16.1 25.7 0.00 0.00 0.00 33 1005.4
20260503110704 10 360 6.4 12.9 0.00 0.00 0.00 50 1005.4
20260503080703 7 316 9.7 17.7 0.00 0.00 0.00 68 1005.4
20260503072703 7 313 16.1 22.5 0.00 0.00 0.00 67 1005.2
20260503070703 7 315 14.5 20.9 0.00 0.00 0.00 68 1005.0
20260503054703 8 329 9.7 16.1 0.00 0.00 0.00 61 1004.4
20260503052703 7 337 6.4 12.9 0.00 0.00 0.00 66 1004.4
20260503050703 7 326 6.4 9.7 0.00 0.00 0.00 67 1004.4
20260503044702 7 322 4.8 8.0 0.00 0.00 0.00 69 1004.3
20260503042702 7 317 4.8 8.0 0.00 0.00 0.00 64 1004.3
20260503040702 8 317 8.0 14.5 0.00 0.00 0.00 62 1004.3
20260503034702 8 324 11.3 19.3 0.00 0.00 0.00 57 1004.2
20260503032702 9 330 12.9 24.1 0.00 0.00 0.00 51 1004.0
20260503030702 9 342 9.7 16.1 0.00 0.00 0.00 56 1003.8
20260503024702 10 350 9.7 20.9 0.00 0.00 0.00 54 1003.6
20260503022702 10 339 12.9 25.7 0.00 0.00 0.00 60 1003.4
20260503020702 10 328 11.3 19.3 0.00 0.00 0.00 60 1003.4
20260503014702 11 295 9.7 17.7 0.00 0.00 0.00 59 1003.3
20260503012702 11 285 11.3 22.5 0.00 0.00 0.00 57 1003.1
20260503010702 11 263 11.3 17.7 0.00 0.00 0.00 55 1003.1
20260503004702 11 261 6.4 11.3 0.00 0.00 0.00 54 1002.9
20260503002702 11 253 8.0 14.5 0.00 0.00 0.00 53 1003.0
20260503000701 12 248 9.7 16.1 0.00 0.00 0.00 53 1003.0
20260502234701 12 251 8.0 14.5 0.00 0.00 0.00 52 1003.0
20260502232701 12 253 9.7 16.1 0.00 0.00 0.00 51 1003.0
20260502230701 12 264 8.0 14.5 0.00 0.00 0.00 51 1002.9
20260502224701 12 264 6.4 12.9 0.00 0.00 0.00 51 1003.0
20260502222701 12 262 9.7 14.5 0.00 0.00 0.00 49 1003.2
20260502220701 12 265 9.7 16.1 0.00 0.00 0.00 50 1003.3
20260502214701 12 273 9.7 16.1 0.00 0.00 0.00 48 1003.5
20260502212701 12 293 9.7 16.1 0.00 0.00 0.00 48 1003.5
20260502210701 13 286 9.7 16.1 0.00 0.00 0.00 47 1003.5
20260502204701 12 294 6.4 9.7 0.00 0.00 0.00 48 1003.5
20260502202701 13 303 6.4 9.7 0.00 0.00 0.00 47 1003.5
20260502200701 13 296 6.4 11.3 0.00 0.00 0.00 45 1003.5